This is the latest recevied weather packets stored in our database for station/object VA6GSB-13. If no packets are shown the sender has not sent any weather packets the latest 10 day(s).
| Time | Temp. | Humidity | Pressure | Rain* | Wind** | Luminosity | Snow |
|---|---|---|---|---|---|---|---|
| 1787565263 | 14.44° C | 84% | 1011.3 hPa | 0 mm | - | 0 W/m² | - |
| 1787564964 | 14.44° C | 85% | 1011.3 hPa | 0 mm | - | 0 W/m² | - |
| 1787564740 | 14.44° C | 85% | 1011 hPa | 0 mm | - | 0 W/m² | - |
| 1787564439 | 14.44° C | 86% | 1011 hPa | 0 mm | - | 0 W/m² | - |
| 1787564140 | 14.44° C | 86% | 1011 hPa | 0 mm | - | 0 W/m² | - |
| 1787564063 | 14.44° C | 86% | 1011.1 hPa | 0 mm | - | 0 W/m² | - |
| 1787563764 | 14.44° C | 87% | 1011.1 hPa | 0 mm | - | 0 W/m² | - |
| 1787563463 | 14.44° C | 88% | 1011 hPa | 0 mm | - | 0 W/m² | - |
| 1787563164 | 14.44° C | 88% | 1011 hPa | 0 mm | - | 0 W/m² | - |
| 1787562882 | 14.44° C | 88% | 1011.1 hPa | 0.25 mm | - | 0 W/m² | - |
| 1787562640 | 14.44° C | 88% | 1011 hPa | 0 mm | - | 0 W/m² | - |
| 1787562339 | 14.44° C | 88% | 1011 hPa | 0 mm | - | 0 W/m² | - |
| 1787562264 | 14.44° C | 88% | 1011.3 hPa | 0.25 mm | - | 0 W/m² | - |
| 1787561964 | 14.44° C | 88% | 1011.4 hPa | 0.76 mm | - | 0 W/m² | - |
| 1787561739 | 14.44° C | 88% | 1011 hPa | 0 mm | - | 0 W/m² | - |
| 1787561440 | 14.44° C | 88% | 1011 hPa | 0 mm | - | 0 W/m² | - |
| 1787561139 | 14.44° C | 88% | 1011 hPa | 0 mm | - | 0 W/m² | - |
| 1787560839 | 14.44° C | 88% | 1011 hPa | 0 mm | - | 0 W/m² | - |
| 1787560773 | 14.44° C | 88% | 1011 hPa | 1.02 mm | - | 0 W/m² | - |
| 1787560539 | 14.44° C | 88% | 1011 hPa | 0 mm | - | 0 W/m² | - |
| 1787560241 | 14.44° C | 88% | 1011 hPa | 0 mm | - | 0 W/m² | - |
| 1787560164 | 14.44° C | 88% | 1010.9 hPa | 1.02 mm | - | 0 W/m² | - |
| 1787559939 | 14.44° C | 89% | 1011 hPa | 0 mm | - | 0 W/m² | - |
| 1787559639 | 14.44° C | 88% | 1011 hPa | 0 mm | - | 0 W/m² | - |
| 1787559340 | 14.44° C | 89% | 1011 hPa | 0 mm | - | 0 W/m² | - |
* Rain latest hour (hover to see other rain measurements)
** Current wind speed in m/s (hover to see current wind gust speed)